Theta_e
343 345 345 344 345 346 346 347 347 347 346 344 343 343 344 346 347 346 344 344 343 343 345 345 346 346 346 347 348 348 350 350 347 345 344 344 344 344 346 348 349 350
342 343 344 344 345 346 345 345 345 344 343 344 343 343 344 347 348 347 346 345 344 344 344 346 346 345 344 345 347 346 346 348 348 345 344 345 344 343 345 348 349 350
340 341 343 344 344 344 343 343 343 342 342 344 345 344 344 346 347 347 347 347 347 346 345 345 346 345 343 343 345 344 344 345 344 344 344 346 345 343 345 348 350 350
336 338 342 344 342 343 342 341 341 342 343 345 345 345 344 345 347 347 346 347 348 348 346 344 344 344 343 343 344 344 344 343 344 343 344 344 344 343 344 347 349 351
335 336 341 343 343 342 342 342 341 342 344 345 346 347 346 346 348 348 347 347 348 349 347 345 344 344 343 343 344 344 344 344 344 343 342 344 344 344 344 346 349 350
336 337 340 343 343 343 344 343 343 344 344 344 345 348 349 349 349 350 350 348 346 347 347 345 344 344 344 344 344 344 344 344 344 343 342 344 345 345 344 346 348 349
337 339 341 343 343 344 345 345 344 345 346 347 347 348 350 351 351 350 351 350 347 345 344 344 344 345 345 345 344 345 344 343 344 344 343 343 343 343 344 346 349 350
339 339 341 343 344 344 345 346 346 347 349 351 350 349 350 351 350 349 351 352 351 347 343 342 344 345 345 345 345 345 344 343 344 344 344 343 343 343 344 346 349 350
342 341 340 341 343 343 345 349 352 351 352 353 352 350 351 352 351 350 351 352 352 350 346 343 343 345 348 348 348 347 345 345 344 343 345 345 343 343 345 346 349 350
344 342 341 341 341 342 345 351 355 354 353 353 353 353 352 352 352 352 351 351 351 351 350 348 346 348 351 352 352 351 350 349 347 345 346 345 343 343 344 344 345 346
344 343 343 342 341 342 346 351 354 354 353 353 354 354 353 352 353 353 352 353 352 352 352 351 350 351 352 353 353 353 352 352 351 350 349 348 347 347 346 345 344 344
343 343 344 344 342 342 345 349 353 353 352 352 353 354 354 353 352 353 353 353 353 353 353 353 353 353 353 353 353 353 352 352 352 352 351 351 350 350 349 348 347 346
345 344 346 347 346 344 344 346 351 353 353 353 353 353 353 353 352 353 353 353 354 354 353 353 353 352 352 352 353 354 353 351 351 352 352 351 351 351 351 351 351 349
347 347 349 350 349 349 348 347 349 351 352 352 353 353 353 352 352 352 353 353 354 352 351 351 350 348 347 348 349 352 354 353 351 352 353 354 353 353 353 353 353 352
350 350 351 351 351 351 352 351 350 350 350 351 352 352 352 352 352 352 352 352 352 352 351 352 351 349 346 344 343 344 349 353 354 353 355 354 353 353 353 354 353 353
353 351 351 351 351 352 353 352 352 351 351 351 350 350 350 351 351 351 351 351 351 352 352 352 352 350 349 348 346 343 345 351 354 354 354 354 353 353 353 353 353 354
351 351 350 351 351 351 351 351 351 352 351 350 349 349 349 350 351 351 351 351 351 351 352 352 351 350 350 349 348 347 347 350 352 353 353 352 351 350 350 352 353 353
350 350 350 351 351 351 351 351 350 350 350 350 349 350 349 350 351 351 351 351 350 350 351 351 351 350 350 349 348 350 350 350 351 353 352 350 350 348 348 349 351 350
350 349 349 349 349 350 350 350 350 350 350 350 350 350 349 350 350 351 351 350 350 349 350 350 350 349 348 348 350 352 352 351 351 352 352 351 350 349 348 347 347 347
350 351 351 351 350 349 349 349 350 350 350 350 351 350 349 350 350 350 350 350 350 349 349 349 349 348 348 348 351 352 352 352 351 350 351 352 351 349 348 347 346 345
349 352 353 353 353 352 351 349 349 350 351 351 350 350 350 350 351 351 351 351 351 351 351 350 349 348 348 349 351 352 352 352 350 349 349 351 352 351 349 349 348 346
348 350 352 353 354 353 352 349 349 351 352 351 351 351 351 351 352 352 352 351 351 351 350 351 350 349 349 349 350 351 351 351 350 348 347 349 351 351 350 349 349 348
350 351 351 351 351 351 349 347 347 349 350 351 353 353 353 353 352 352 352 351 351 351 351 350 350 348 348 349 349 350 350 350 350 348 346 345 347 349 350 350 349 348
350 349 349 349 349 349 348 347 347 348 348 350 352 352 352 352 352 352 352 351 350 350 349 349 349 348 346 346 347 349 351 351 349 347 345 345 345 347 349 350 350 349
347 347 347 347 347 347 348 348 348 349 349 350 350 350 350 351 350 351 352 351 350 350 349 349 349 350 349 347 348 349 351 350 348 346 346 346 346 347 349 350 350 350
344 344 342 342 342 344 345 347 347 347 348 349 349 349 349 349 347 348 349 349 349 349 349 350 350 350 350 350 350 350 350 350 349 348 347 347 347 347 348 349 349 350
Wind_Speed
24 23 23 21 20 19 18 18 17 15 14 14 13 12 12 13 13 12 12 13 13 12 12 11 11 11 10 11 10 9 9 8 7 8 9 9 9 10 9 8 7 7
24 24 24 22 19 19 19 18 17 15 14 14 13 13 12 13 13 13 12 14 14 12 12 12 11 11 10 11 11 10 10 9 8 9 9 9 9 10 9 8 8 7
25 24 24 23 20 19 19 18 18 17 15 14 14 14 14 13 13 13 12 13 14 12 12 12 12 12 11 11 11 10 10 10 9 10 10 10 10 9 9 9 9 7
26 25 25 23 20 18 18 18 19 18 16 15 15 15 15 14 13 13 13 13 14 13 13 13 12 13 12 11 11 10 10 10 10 10 10 10 10 10 10 9 9 8
26 25 25 24 22 19 18 18 19 18 17 16 16 16 16 15 15 14 14 14 14 14 14 13 13 13 13 12 11 10 10 11 10 10 10 10 10 10 10 9 9 8
26 25 25 25 23 21 20 20 19 18 18 17 16 16 16 15 15 15 14 14 14 14 15 14 14 14 14 13 12 11 11 11 10 10 10 11 11 11 10 10 10 8
26 25 25 24 23 22 21 20 19 18 18 17 16 16 16 16 16 15 14 14 14 15 15 14 15 15 13 13 13 12 11 11 10 9 10 11 11 11 11 11 11 9
25 25 25 24 23 22 21 19 18 18 16 16 16 16 16 16 16 15 14 13 14 15 15 15 14 14 13 13 13 13 12 11 10 9 10 11 11 11 11 12 12 11
24 24 25 24 23 23 21 19 17 17 16 16 15 15 15 15 15 15 15 14 14 15 15 14 14 14 13 12 12 13 13 11 10 9 10 11 11 11 11 12 12 11
24 24 24 24 24 24 22 20 18 18 17 17 16 15 14 14 15 15 15 16 16 16 15 15 14 15 13 11 11 12 12 11 10 10 11 12 12 11 11 11 11 10
25 24 24 24 24 24 23 22 21 20 19 19 19 18 16 16 16 16 16 17 17 16 15 15 14 14 13 13 12 12 12 12 11 11 11 12 12 11 10 11 11 10
24 24 25 24 24 24 24 23 21 19 19 19 19 18 18 17 17 17 17 16 17 17 17 17 16 16 15 15 14 14 13 13 12 12 11 11 12 11 10 10 10 10
22 22 22 21 21 21 22 23 23 21 20 20 19 18 17 17 18 17 17 19 21 21 20 19 19 18 18 19 18 16 16 14 13 13 12 11 11 10 9 8 8 8
18 18 18 17 17 16 15 18 21 21 20 20 21 20 20 19 19 19 20 23 24 21 19 18 17 17 17 18 18 19 18 17 15 14 13 12 12 12 11 10 9 9
20 19 18 17 16 16 15 15 17 19 19 20 21 22 23 23 22 21 22 24 24 21 19 19 19 18 17 16 16 18 19 18 18 17 16 14 14 14 13 13 12 12
26 24 22 21 20 20 20 19 19 21 22 22 22 23 24 25 24 23 22 22 23 22 21 21 20 19 18 16 15 16 17 18 19 19 19 17 16 15 15 15 15 16
26 25 22 22 22 20 21 22 23 24 24 23 23 23 24 24 26 26 23 22 22 22 22 22 21 20 19 17 17 16 16 16 17 18 19 18 16 15 15 15 15 16
26 27 23 21 20 18 16 18 21 23 23 23 23 24 22 22 24 26 24 21 21 22 22 23 22 21 20 19 18 18 16 15 16 18 18 17 16 14 12 13 14 13
27 29 27 25 25 22 19 17 19 21 22 22 23 24 24 23 24 25 24 22 21 20 21 22 23 22 21 20 20 19 17 17 18 20 19 18 17 15 13 13 13 14
27 29 28 27 28 28 26 24 24 24 25 24 23 24 25 25 24 24 23 23 22 21 22 22 23 22 21 20 21 20 19 19 21 22 22 21 20 17 16 16 15 15
28 30 29 28 28 29 28 28 28 29 29 29 28 27 26 26 25 24 23 22 22 22 23 23 22 22 20 20 21 22 22 23 23 23 23 24 23 20 19 18 17 17
28 27 27 27 26 28 29 29 30 31 31 32 32 31 29 26 24 24 23 23 23 23 23 23 23 22 21 20 22 24 24 25 26 24 21 23 24 23 21 21 20 20
25 22 20 21 22 24 27 28 30 31 31 31 30 28 26 26 27 27 26 25 25 25 24 24 24 23 23 21 22 24 25 26 27 25 23 23 24 24 24 23 23 22
19 19 18 18 19 21 23 26 29 30 30 29 27 25 26 27 29 30 27 24 24 25 24 24 25 25 25 24 23 24 25 25 24 24 25 24 23 23 26 27 26 25
11 12 12 11 14 16 17 20 24 26 26 26 25 25 27 27 24 24 25 24 24 25 24 25 26 26 26 26 24 23 22 20 20 21 23 23 23 23 26 29 29 29
7 6 4 4 6 9 12 15 18 20 20 22 23 24 25 24 21 20 21 22 21 22 22 25 26 24 23 23 23 23 22 20 19 20 21 21 22 23 25 28 30 29
Wind_Direction
206 207 211 212 211 213 212 210 213 211 208 212 212 212 214 212 207 206 210 212 212 214 216 214 213 216 218 221 225 227 223 217 216 224 223 220 223 224 222 222 224 226
207 207 210 211 209 214 217 215 216 216 214 216 218 219 217 212 210 209 213 215 213 214 217 215 215 218 220 222 226 232 230 222 223 229 228 226 227 226 224 224 222 223
209 207 208 210 210 213 217 216 216 217 217 216 217 220 219 215 216 216 217 218 216 217 220 217 214 219 223 223 226 232 231 225 227 232 230 226 228 227 225 228 228 227
210 209 209 212 212 211 211 211 213 216 216 215 215 217 218 218 221 221 219 219 218 218 221 219 215 219 224 224 224 226 228 228 230 232 228 224 227 229 225 225 230 231
211 210 210 212 214 213 210 209 212 214 215 215 213 214 218 218 218 218 219 221 220 218 219 220 220 222 225 225 224 224 224 226 228 228 225 223 227 229 225 222 226 226
210 210 210 212 214 214 212 212 213 214 216 216 212 213 217 218 217 219 221 222 222 221 219 219 221 222 224 225 225 226 224 224 225 224 221 221 224 224 221 220 222 216
210 210 211 213 214 216 217 216 216 216 217 218 215 213 216 221 224 223 222 224 225 225 224 222 222 221 222 225 226 225 224 222 225 226 224 222 220 220 220 220 217 210
213 212 214 216 216 217 219 219 220 219 218 221 221 218 217 224 230 228 227 231 231 229 227 225 224 222 221 223 225 225 222 221 224 227 226 222 220 222 224 225 223 218
214 215 216 218 219 220 217 216 222 224 221 223 223 220 220 225 231 231 231 236 235 229 227 227 226 223 220 222 226 225 221 218 220 221 219 218 219 223 227 228 231 232
214 216 218 219 220 221 217 216 222 226 227 226 224 223 226 228 228 229 231 235 233 227 224 224 220 215 217 227 235 232 227 223 221 219 218 218 217 220 225 229 233 236
215 216 218 220 221 220 218 217 220 226 229 228 224 226 233 234 229 226 228 231 233 230 227 226 223 218 224 235 242 241 234 229 231 230 225 224 223 223 227 232 234 234
216 216 217 220 222 222 221 219 218 223 226 225 224 227 234 237 232 228 231 235 237 233 228 227 227 227 233 239 244 248 244 237 238 240 237 233 232 231 232 235 241 242
214 215 216 219 221 221 222 222 219 221 223 223 226 229 233 238 237 233 236 239 238 234 230 230 230 233 237 237 235 238 242 243 241 239 240 241 238 233 232 238 246 243
214 213 213 216 217 214 219 223 222 222 223 223 228 233 234 238 238 235 235 239 241 241 238 238 241 245 249 249 244 236 232 236 239 234 234 241 242 235 234 237 237 234
214 215 215 218 218 215 218 220 220 223 225 228 233 237 239 240 240 239 237 238 242 244 241 239 243 248 251 256 257 247 234 229 233 236 237 239 243 242 242 244 243 245
214 214 214 218 220 224 226 225 225 229 232 235 238 239 240 240 240 242 243 240 242 244 240 240 246 248 245 243 246 247 241 230 228 236 240 240 244 246 245 245 247 251
220 220 216 212 212 215 219 221 225 231 234 236 238 239 240 239 237 241 246 245 245 245 241 243 250 249 243 241 237 236 237 230 227 233 235 238 244 247 246 247 249 251
222 225 224 220 217 215 214 215 220 229 234 238 240 241 242 238 234 237 244 245 246 247 246 248 251 247 243 241 235 228 230 232 234 237 234 234 242 250 253 250 245 241
224 227 227 229 233 233 233 231 227 231 236 239 241 241 242 240 236 236 240 242 243 244 245 246 246 244 244 241 232 225 230 238 242 243 239 233 237 245 248 243 232 225
229 230 229 232 235 235 237 237 236 239 241 241 242 241 241 241 240 239 240 240 241 241 241 245 246 245 244 238 228 224 230 238 242 243 242 238 237 238 236 234 235 234
232 233 234 235 236 237 238 237 237 242 246 245 244 243 242 241 240 239 238 238 240 241 242 246 249 247 243 234 228 227 230 235 237 237 239 239 238 238 234 234 242 246
234 236 236 237 237 238 240 239 239 244 247 246 245 243 243 243 242 242 241 241 243 244 244 247 248 248 244 237 234 232 233 237 239 238 240 239 237 237 238 238 242 247
236 240 240 240 242 242 241 241 244 247 249 250 249 246 243 242 242 244 246 247 248 247 246 245 246 247 246 243 241 239 239 242 243 241 242 243 239 238 239 240 242 244
238 245 247 246 247 249 247 246 249 251 251 253 254 251 248 246 243 243 245 249 251 250 248 247 247 247 247 246 246 245 245 245 243 237 237 241 242 240 239 240 242 244
224 234 241 239 239 245 247 247 250 251 251 251 253 254 256 255 250 245 244 245 247 247 246 248 247 244 242 242 242 243 246 245 240 235 236 239 242 242 241 241 244 247
205 214 229 229 229 236 240 242 247 249 249 250 252 255 258 258 256 253 248 248 251 251 247 247 248 244 241 239 237 238 242 243 240 238 240 242 243 244 245 245 247 249